Location: Mohawk View
(42.7837°N, 73.7885°W)
Time: 13:07:24
(UTC+00:00)

Cosmos 1726 - Pass Details

Date: 17 June 2021
Orbit: 480 x 496 km, 82.5° (Epoch: 26 July)

Event Time Altitude Azimuth Distance (km) Brightness Sun altitude
Rises 01:19:54 0° 355° (N) 2,550 6.5 -7.2°
Reaches altitude 10° 01:22:02 10° 360° (N) 1,666 5.4 -7.5°
Maximum altitude 01:25:38 58° 80° (E) 566 2.2 -8.0°
Drops below altitude 10° 01:29:12 10° 160° (SSE) 1,655 4.2 -8.5°
Enters shadow 01:29:28 - 161° (SSE) 1,762 4.4 -8.5°
